, NV

(GMT )
Las Vegas

Weather History for KBJN - October, 2012

Change the Weather History Date:

Monday, October 15, 2012

  Actual Average Record
Temperature  
Mean Temperature 55 °F -  
Max Temperature 68 °F - - ()
Min Temperature 42 °F - - ()
Degree Days  
Heating Degree Days 10    
Growing Degree Days 5 (Base 50)    
Moisture  
Dew Point 38 °F    
Average Humidity 60    
Maximum Humidity 79    
Minimum Humidity 31    
Precipitation  
Precipitation 0.00 in - - ()
Sea Level Pressure  
Sea Level Pressure 29.76 in    
Wind  
Wind Speed 7 mph (West)    
Max Wind Speed 12 mph    
Max Gust Speed -    
Visibility 9 miles    
Events      
Averages and records for this station are not official NWS values.
T = Trace of Precipitation, MM = Missing Value Source: NWS Daily Summary

Daily Weather History Graph

Daily Weather History Graph

Search for Another Location

Airport or City:

Trip Planner

Search our weather history database for the weather conditions in past years. The results will help you decide how hot, cold, wet, or windy it might be!

Date:

Astronomy

Oct. 15, 2012 Rise Set
Actual Time 6:53 AM PDT 6:06 PM PDT
Civil Twilight 6:27 AM PDT 6:33 PM PDT
Nautical Twilight 5:57 AM PDT 7:03 PM PDT
Astronomical Twilight 5:26 AM PDT 7:33 PM PDT
Moon 7:08 AM PDT (10/15) 6:11 PM PDT (10/15)
Length of Visible Light 12h 05m
Length of Day
11h 13m
New Moon, 0% of the Moon is Illuminated
Oct 15
New Moon
Oct 21
First Quarter
Oct 29
Full
Nov 6
Last Quarter
Nov 13
New

Hourly Weather History & Observations

Time (PDT) Temp. Windchill Dew Point Humidity Pressure Visibility Wind Dir Wind Speed Gust Speed Precip Events Conditions
12:56 AM 44.1 °F 40.1 °F 37.9 °F 79% 29.81 in 7.0 mi NW 6.9 mph - N/A   Clear
1:56 AM 42.1 °F 37.1 °F 36.0 °F 79% 29.81 in 6.0 mi WNW 8.1 mph - N/A   Haze
2:56 AM 42.1 °F 37.1 °F 36.0 °F 79% 29.78 in 7.0 mi WNW 8.1 mph - N/A   Clear
5:56 AM 46.0 °F 40.6 °F 37.0 °F 71% 29.77 in 9.0 mi West 11.5 mph - N/A   Clear
6:56 AM 44.1 °F 42.5 °F 36.0 °F 73% 29.82 in 10.0 mi South 3.5 mph - N/A   Clear
7:56 AM 46.0 °F - 37.9 °F 73% 29.82 in 10.0 mi Calm Calm - N/A   Clear
8:56 AM 53.1 °F - 39.0 °F 59% 29.82 in 10.0 mi Calm Calm - N/A   Clear
9:56 AM 57.0 °F - 37.9 °F 49% 29.81 in 10.0 mi Calm Calm - N/A   Clear
11:56 AM 63.0 °F - 39.0 °F 41% 29.78 in 10.0 mi South 6.9 mph - N/A   Clear
1:56 PM 68.0 °F - 36.0 °F 31% 29.72 in 10.0 mi West 9.2 mph - N/A   Clear
2:56 PM 66.9 °F - 35.1 °F 31% 29.71 in 10.0 mi West 8.1 mph - N/A   Clear
3:56 PM 66.9 °F - 37.0 °F 33% 29.70 in 10.0 mi West 9.2 mph - N/A   Clear
4:56 PM 66.9 °F - 36.0 °F 32% 29.69 in 10.0 mi West 6.9 mph - N/A   Clear
6:56 PM 55.0 °F - 41.0 °F 59% 29.73 in 10.0 mi NW 11.5 mph - N/A   Clear
7:56 PM 51.1 °F - 41.0 °F 68% 29.75 in 10.0 mi WNW 11.5 mph - N/A   Clear
8:56 PM 50.0 °F - 41.0 °F 71% 29.73 in 10.0 mi Calm Calm - N/A   Clear
9:56 PM 50.0 °F - 39.9 °F 68% 29.73 in 10.0 mi NW 10.4 mph - N/A   Clear
10:56 PM 48.9 °F - 39.0 °F 69% 29.72 in 10.0 mi SW 4.6 mph - N/A   Clear
11:56 PM 48.9 °F - 37.9 °F 66% 29.70 in 10.0 mi WNW 6.9 mph - N/A   Clear